Location: DARK SKY Beskydy - Park tmavé oblohy, www.darkskybeskydy.cz
(49.4926°N, 18.5016°E)
Time: 19:34:30
(UTC+02:00)

Tiros 1 despin weight - All Passes

Search period start: 23 July 2024 00:00
Search period end: 02 August 2024 00:00
Orbit: 576 x 620 km, 48.2° (Epoch: 23 July)

Date Brightness Start Highest point End Pass type
(mag) Time Alt. Az. Time Alt. Az. Time Alt. Az.
23 Jul - 00:06:11 10° SSE 00:07:59 12° SE 00:09:47 10° ESE visible
23 Jul - 01:44:11 10° SW 01:48:14 40° SSE 01:52:21 10° E visible
23 Jul - 03:24:44 10° W 03:29:05 75° S 03:33:30 10° E visible
23 Jul - 05:05:45 10° W 05:10:05 60° SSW 05:14:28 10° ESE daylight
23 Jul - 06:47:07 10° W 06:50:41 24° SSW 06:54:18 10° SSE daylight
24 Jul - 00:14:30 10° S 00:17:36 19° SE 00:20:43 10° E visible
24 Jul - 01:53:51 10° WSW 01:58:05 54° SSE 02:02:21 10° E visible
24 Jul - 03:34:40 10° W 03:39:02 76° S 03:43:27 10° E visible
24 Jul - 05:15:44 10° W 05:19:57 47° SSW 05:24:13 10° SE daylight
24 Jul - 06:57:37 10° WSW 07:00:21 16° SW 07:03:08 10° S daylight
25 Jul - 00:23:35 10° SSW 00:27:17 28° SSE 00:31:02 10° E visible
25 Jul - 02:03:40 10° WSW 02:07:58 66° SSE 02:12:19 10° E visible
25 Jul - 03:44:36 10° W 03:48:58 71° S 03:53:22 10° ESE visible
25 Jul - 05:25:45 10° W 05:29:45 35° SSW 05:33:48 10° SE daylight
25 Jul - 22:55:11 10° SSE 22:56:48 12° SE 22:58:24 10° ESE night (unlit)
26 Jul - 00:33:00 10° SW 00:37:02 39° SSE 00:41:06 10° E visible
26 Jul - 02:13:32 10° W 02:17:52 74° S 02:22:15 10° E visible
26 Jul - 03:54:32 10° W 03:58:51 61° SSW 04:03:12 10° ESE visible
26 Jul - 05:35:54 10° W 05:39:29 25° SSW 05:43:05 10° SSE daylight
26 Jul - 23:03:21 10° S 23:06:22 19° SE 23:09:24 10° E visible
27 Jul - 00:42:38 10° WSW 00:46:50 53° SSE 00:51:04 10° E visible
27 Jul - 02:23:26 10° W 02:27:46 76° S 02:32:09 10° E visible
27 Jul - 04:04:28 10° W 04:08:41 48° SSW 04:12:56 10° SE visible
27 Jul - 05:46:19 10° WSW 05:49:07 17° SW 05:51:54 10° S daylight
27 Jul - 23:12:21 10° SSW 23:16:00 27° SSE 23:19:42 10° E visible
28 Jul - 00:52:23 10° WSW 00:56:40 65° SSE 01:01:00 10° E visible
28 Jul - 02:33:20 10° W 02:37:39 72° S 02:42:02 10° ESE visible
28 Jul - 04:14:27 10° W 04:18:27 35° SSW 04:22:29 10° SE visible
28 Jul - 05:58:11 10° SW 05:58:39 10° SW 05:59:07 10° SW daylight
28 Jul - 21:44:04 10° SSE 21:45:30 11° SE 21:46:54 10° ESE visible
28 Jul - 23:21:43 10° SW 23:25:43 39° SSE 23:29:45 10° E visible
29 Jul - 01:02:13 10° WSW 01:06:32 74° S 01:10:53 10° E visible
29 Jul - 02:43:14 10° W 02:47:31 62° SSW 02:51:51 10° ESE visible
29 Jul - 04:24:33 10° W 04:28:09 25° SSW 04:31:46 10° SSE visible
29 Jul - 21:52:04 10° S 21:55:01 18° SE 21:57:59 10° E visible
29 Jul - 23:31:17 10° WSW 23:35:28 52° SSE 23:39:41 10° E visible
30 Jul - 01:12:05 10° W 01:16:24 76° S 01:20:46 10° E visible
30 Jul - 02:53:07 10° W 02:57:19 49° SSW 03:01:33 10° SE visible
30 Jul - 04:34:55 10° W 04:37:45 17° SW 04:40:35 10° S visible
30 Jul - 22:01:00 10° SSW 22:04:37 27° SSE 22:08:16 10° E visible
30 Jul - 23:41:00 10° WSW 23:45:16 64° SSE 23:49:34 10° E visible
31 Jul - 01:21:56 10° W 01:26:15 72° S 01:30:36 10° ESE visible
31 Jul - 03:03:04 10° W 03:07:03 36° SSW 03:11:04 10° SE visible
31 Jul - 04:46:27 10° SW 04:47:15 10° SW 04:48:04 10° SSW daylight
31 Jul - 20:32:53 10° SSE 20:34:04 11° SE 20:35:16 10° ESE daylight
31 Jul - 22:10:18 10° SW 22:14:17 38° SSE 22:18:17 10° E visible
31 Jul - 23:50:48 10° WSW 23:55:05 73° S 23:59:26 10° E visible
01 Aug - 01:31:48 10° W 01:36:05 62° SSW 01:40:23 10° ESE visible
01 Aug - 03:13:06 10° W 03:16:42 26° SSW 03:20:20 10° SSE visible
01 Aug - 20:40:41 10° S 20:43:34 18° SE 20:46:27 10° E daylight
01 Aug - 22:19:50 10° SW 22:24:00 50° SSE 22:28:12 10° E visible
